Location: Milton Keynes
(52.0316°N, 0.7531°W)
Time: 23:16:13
(UTC+01:00)

N. Korean satellite - Visible Passes

Search period start: 21 October 2019 00:00
Search period end: 30 October 2019 23:00
Orbit: 455 x 508 km, 97.2° (Epoch: 20 October)

Date Brightness Start Highest point End Pass type
(mag) Time Alt. Az. Time Alt. Az. Time Alt. Az.
21 Oct 7.4 06:55:37 10° NNE 06:59:11 58° E 07:02:47 10° S visible
21 Oct 10.0 19:11:28 10° SW 19:13:29 15° W 19:15:32 10° NW visible
22 Oct 8.8 06:30:32 10° NNE 06:33:47 30° E 06:37:04 10° SSE visible
22 Oct 9.1 18:45:01 10° SSW 18:47:57 26° W 18:50:58 10° NW visible
23 Oct 9.9 06:05:48 10° NE 06:08:18 17° E 06:10:49 10° SE visible
25 Oct 7.8 06:47:46 10° NNE 06:51:19 47° E 06:54:53 10° S visible
25 Oct 9.8 19:03:08 10° SW 19:05:32 18° W 19:08:00 10° NW visible
26 Oct 9.1 06:22:46 10° NE 06:25:53 26° E 06:29:02 10° SSE visible
26 Oct 8.6 18:36:53 10° SSW 18:40:02 32° W 18:43:14 10° NNW visible
27 Oct 10.1 04:58:12 10° NE 05:00:22 15° E 05:02:32 10° SE visible
27 Oct 7.1 17:11:10 10° S 17:14:37 63° W 17:18:07 10° NNW visible
28 Oct 6.9 06:05:07 10° NNE 06:08:48 76° ESE 06:12:30 10° S visible
28 Oct 10.2 18:21:46 10° WSW 18:23:08 12° W 18:24:32 10° WNW visible
29 Oct 8.2 05:39:55 10° NNE 05:43:25 39° E 05:46:55 10° SSE visible
29 Oct 9.5 17:54:49 10° SW 17:57:33 21° W 18:00:21 10° NW visible
30 Oct 9.4 05:15:00 10° NE 05:17:57 22° E 05:20:53 10° SE visible
30 Oct 8.2 17:28:46 10° SSW 17:32:04 39° W 17:35:26 10° NNW visible
